Regional Weather Roundup
Issued by NWS

Home | Current Version | Previous Version | Graphics & Text | Print | Product List | Glossary On
Versions: 1 2 3 4 5 6 7 8 9 10 11 12 13 14 15 16 17 18 19 20 21 22 23 24 25 26 27 28 29 30 31 32 33 34 35 36 37 38 39 40 41 42 43 44 45 46 47 48 49 50
000
ASUS43 KBIS 072002
RWRND

NORTH DAKOTA REGIONAL WEATHER ROUNDUP
NATIONAL WEATHER SERVICE BISMARCK ND
200 PM CST SUN FEB 07 2016

NOTE: "FAIR" INDICATES FEW OR NO CLOUDS BELOW 12,000 FEET WITH NO
SIGNIFICANT WEATHER AND/OR OBSTRUCTIONS TO VISIBILITY.


NDZ001>003-009>011-017-072100-
NORTHWEST NORTH DAKOTA

CITY           SKY/WX    TMP DP  RH WIND       PRES   REMARKS
WILLISTON      SUNNY     37  17  44 NW33G43   30.16R
MINOT          FLURRIES  29  15  56 NW32G53   29.99R WCI  13
MINOT AFB      CLOUDY    27  17  65 NW30G44   29.98R WCI  11
$$

NDZ018>021-031>035-040>046-072100-
SOUTHWEST NORTH DAKOTA

CITY           SKY/WX    TMP DP  RH WIND       PRES   REMARKS
BISMARCK       CLOUDY    34  19  54 NW39G54   29.97R WCI  19
DICKINSON      PTSUNNY   31  12  45 NW38G49   30.08R WCI  15
GARRISON         N/A     29  18  63 NW41G51   29.98R WCI  11
HETTINGER ARPT PTSUNNY   35  11  36 NW39G56   30.09R
$$

NDZ004>008-012>016-024-026-027-054-072100-
NORTHEAST NORTH DAKOTA

CITY           SKY/WX    TMP DP  RH WIND       PRES   REMARKS
GRAND FORKS    CLOUDY    22  13  68 N30G44    29.78R WCI   4
GRND FRKS AFB  FLURRIES  21  11  64 N30G44    29.79R WCI   3
DEVILS LAKE    FLURRIES  20  14  77 NW37      29.82R WCI   0
$$

NDZ022-023-025-028>030-036>039-047>053-072100-
SOUTHEAST NORTH DAKOTA

CITY           SKY/WX    TMP DP  RH WIND       PRES   REMARKS
FARGO          CLOUDY    27  18  69 NW38G44   29.76R WCI   9
JAMESTOWN      LGT SNOW  25  19  78 NW33G44   29.83R WCI   7
$$




USA.gov is the U.S. government's official web portal to all federal, state and local government web resources and services.